Wind_Speed
25 30 31 27 17 15 15 13 10 14 21 20 21 22 23 20 18 19 17 15 13 12 11 11 10 7 6 4 3 0 2 3 3
30 32 33 32 29 19 18 17 14 12 18 23 23 25 25 23 21 19 20 20 18 16 14 13 11 9 7 5 4 1 2 3 2
33 35 36 40 32 34 27 20 19 16 16 20 25 26 26 25 24 23 23 22 22 21 18 16 14 11 9 8 6 4 3 3 1
27 30 35 31 46 35 27 28 26 18 17 18 23 25 25 26 24 23 23 21 23 24 22 19 18 15 13 11 9 7 6 5 2
26 25 28 39 32 30 28 33 28 20 16 19 22 27 29 29 28 26 25 23 22 22 23 22 21 17 15 14 11 9 9 8 5
28 27 29 30 37 34 31 32 30 24 14 15 20 24 30 30 29 27 26 25 24 22 21 21 21 20 19 16 14 12 11 11 8
35 26 27 27 33 20 26 32 29 25 17 14 15 20 27 32 31 30 29 28 27 25 22 21 22 22 21 19 16 14 13 13 11
34 32 29 31 34 31 36 34 36 25 25 17 13 14 19 28 34 34 34 30 28 28 25 23 23 22 22 20 18 16 16 15 13
39 31 41 27 36 36 38 35 51 29 25 22 16 15 17 21 29 34 33 33 31 29 28 26 25 21 22 21 19 19 18 17 15
48 38 40 38 41 30 26 29 26 39 33 27 23 18 13 16 21 29 34 34 32 29 28 29 25 23 22 21 22 20 19 19 17
59 56 45 49 44 42 38 41 37 46 39 44 32 25 16 14 16 21 30 34 30 29 29 29 29 27 25 24 23 22 21 20 18
65 66 58 51 53 48 44 44 42 37 25 52 30 25 20 12 11 15 23 27 27 29 29 29 28 28 27 25 24 24 24 22 19
69 66 66 65 57 57 59 56 51 46 46 36 22 25 21 18 16 15 18 25 27 28 28 30 32 30 28 27 27 27 25 23 21
61 64 58 59 59 58 62 62 53 36 29 31 35 28 24 20 18 17 17 24 26 26 27 29 32 32 31 29 29 28 27 25 23
62 63 61 61 56 65 63 63 53 51 41 45 36 32 29 25 22 20 20 21 24 24 25 25 26 29 31 30 30 29 28 26 25
70 58 62 66 48 65 61 66 65 65 56 30 36 36 35 31 28 26 24 25 25 25 25 25 24 24 26 30 32 31 31 29 27
84 71 55 68 68 62 55 57 58 62 60 52 47 42 39 38 34 30 27 26 25 24 25 25 26 26 24 27 31 33 33 33 31
81 88 71 64 66 55 59 61 59 61 58 52 50 47 46 45 40 37 34 32 29 27 26 25 27 30 31 31 30 32 34 34 34
75 83 86 73 63 52 49 60 62 57 56 53 52 50 50 49 45 44 41 39 35 31 29 28 28 31 33 35 33 34 35 33 35
76 75 67 67 77 65 59 63 60 53 49 48 51 53 53 50 47 49 47 43 40 38 34 32 32 29 32 35 36 37 37 36 36
Wind_Direction
245 211 216 188 190 197 178 185 192 204 203 205 201 206 211 209 207 199 191 189 192 195 184 176 179 181 192 200 197 93 50 61 63
268 242 219 209 189 210 190 176 181 192 205 208 204 202 209 210 205 210 203 194 196 200 199 196 199 195 207 212 211 214 127 109 74
266 269 265 215 204 198 200 195 197 199 210 205 210 208 203 211 209 206 213 203 202 207 204 208 207 212 210 219 227 236 179 141 109
284 287 280 234 258 215 207 198 191 201 211 216 212 215 210 210 215 212 215 216 212 212 211 213 219 214 220 225 231 240 202 195 205
274 282 289 288 242 203 243 222 201 185 200 216 217 215 216 210 214 212 212 215 220 221 219 216 226 228 224 224 230 233 225 220 216
240 266 266 278 285 247 220 207 208 186 190 211 217 216 216 218 213 218 214 216 219 223 228 232 226 229 230 236 233 236 238 233 243
222 226 247 261 270 265 221 228 209 187 183 221 211 217 220 218 216 216 219 219 219 220 224 229 234 234 236 235 237 240 244 240 248
222 215 223 229 240 234 208 218 221 202 181 209 222 217 219 224 219 216 217 219 219 221 224 228 234 238 242 242 242 244 247 247 256
214 220 219 204 231 230 216 225 217 203 201 195 217 225 217 219 223 223 221 220 223 223 227 228 232 238 243 245 241 242 246 250 260
204 210 208 216 225 231 233 209 222 197 195 209 200 214 230 217 219 221 222 223 225 227 227 231 234 236 239 241 241 241 245 249 256
208 207 215 220 233 240 245 236 234 233 221 227 203 195 216 230 217 220 220 221 223 227 230 230 233 235 238 239 238 240 240 246 255
213 213 212 216 220 232 242 248 242 214 234 224 204 202 188 214 227 220 215 217 219 221 227 232 232 234 234 239 241 241 242 244 245
213 219 221 225 224 233 236 239 236 247 250 244 234 209 193 204 219 223 215 215 220 223 225 228 232 233 234 235 238 243 248 246 240
210 215 221 221 221 226 231 235 229 215 213 231 219 215 210 207 218 222 225 222 222 226 228 230 231 232 234 236 238 242 248 251 237
220 216 216 216 220 219 224 224 230 225 230 199 208 216 217 215 220 232 241 232 225 226 229 228 230 232 233 234 235 239 247 252 241
214 214 221 219 222 221 225 223 221 224 230 233 225 211 221 226 223 231 241 239 226 224 228 228 228 231 231 233 234 236 240 246 246
223 215 217 219 221 223 225 225 226 225 229 230 231 220 220 225 233 230 229 231 229 230 232 227 231 232 234 234 232 232 235 238 244
226 226 222 222 217 222 229 234 231 227 223 223 225 225 223 221 223 229 231 229 226 230 236 236 231 233 235 236 235 231 232 234 241
219 228 229 225 224 233 230 229 224 224 220 220 221 225 225 224 222 222 225 228 231 227 230 238 242 242 240 240 237 239 238 235 240
218 222 228 232 229 225 228 216 221 221 221 221 221 224 228 225 225 224 228 225 231 234 230 235 240 244 247 241 241 238 242 241 240
Height
5878 5883 5888 5881 5890 5895 5895 5899 5903 5906 5912 5917 5922 5928 5932 5935 5939 5942 5945 5947 5949 5951 5954 5956 5958 5959 5961 5962 5962 5963 5963 5963 5963
5871 5880 5880 5882 5878 5892 5895 5895 5900 5904 5908 5913 5917 5922 5928 5933 5937 5940 5943 5946 5948 5950 5953 5955 5958 5959 5961 5962 5963 5963 5963 5964 5964
5862 5865 5870 5874 5877 5878 5884 5891 5896 5900 5904 5909 5913 5917 5923 5928 5934 5937 5940 5944 5946 5949 5952 5954 5956 5958 5960 5962 5963 5964 5964 5964 5965
5859 5859 5856 5864 5876 5882 5884 5884 5887 5895 5901 5905 5910 5915 5920 5924 5930 5935 5938 5942 5944 5946 5949 5952 5953 5956 5959 5961 5963 5963 5964 5965 5965
5857 5857 5855 5853 5856 5871 5879 5884 5887 5887 5894 5900 5905 5910 5914 5919 5924 5930 5935 5939 5941 5944 5946 5949 5950 5953 5956 5959 5961 5962 5964 5965 5966
5842 5851 5850 5851 5853 5864 5857 5875 5882 5880 5887 5894 5900 5904 5909 5913 5920 5925 5930 5934 5937 5941 5944 5947 5950 5952 5953 5955 5958 5960 5962 5963 5964
5835 5842 5849 5852 5851 5857 5866 5872 5874 5875 5878 5889 5894 5899 5903 5907 5913 5919 5924 5928 5932 5936 5939 5942 5945 5948 5950 5952 5955 5957 5959 5961 5962
5824 5832 5830 5839 5842 5845 5857 5864 5871 5870 5869 5883 5891 5895 5898 5900 5904 5910 5916 5922 5926 5930 5934 5938 5940 5943 5946 5949 5952 5954 5955 5957 5959
5816 5820 5821 5828 5825 5834 5848 5858 5862 5865 5868 5874 5884 5891 5892 5894 5899 5905 5911 5916 5921 5925 5929 5932 5935 5939 5942 5945 5948 5950 5951 5953 5955
5806 5811 5816 5815 5820 5829 5838 5846 5850 5852 5859 5867 5874 5884 5888 5890 5893 5898 5904 5909 5914 5920 5924 5927 5931 5934 5937 5940 5942 5945 5947 5949 5950
5793 5801 5807 5810 5819 5822 5831 5832 5840 5844 5848 5861 5865 5872 5883 5886 5888 5892 5897 5903 5908 5913 5918 5922 5925 5928 5931 5934 5936 5939 5941 5943 5945
5781 5788 5798 5803 5813 5817 5820 5824 5823 5807 5835 5852 5858 5869 5872 5879 5884 5886 5891 5896 5901 5905 5910 5915 5919 5921 5925 5928 5930 5932 5934 5937 5939
5768 5778 5786 5793 5802 5807 5810 5815 5823 5829 5835 5843 5855 5865 5866 5870 5876 5881 5885 5890 5893 5897 5903 5907 5910 5914 5918 5922 5924 5925 5927 5930 5933
5767 5772 5779 5784 5790 5795 5801 5807 5811 5824 5820 5839 5852 5858 5857 5860 5868 5875 5879 5883 5886 5891 5895 5899 5903 5907 5910 5914 5917 5919 5921 5923 5927
5753 5763 5764 5775 5778 5783 5792 5799 5801 5814 5822 5823 5837 5844 5850 5854 5862 5867 5872 5876 5879 5883 5888 5892 5895 5899 5903 5906 5909 5911 5914 5916 5920
5738 5745 5752 5763 5766 5773 5781 5789 5797 5805 5804 5800 5826 5834 5841 5849 5855 5860 5865 5869 5872 5876 5880 5885 5889 5892 5895 5898 5901 5903 5906 5908 5912
5718 5729 5736 5748 5756 5762 5769 5777 5786 5796 5802 5808 5817 5825 5832 5840 5848 5854 5859 5863 5866 5869 5872 5877 5881 5885 5887 5889 5891 5894 5896 5900 5903
5703 5712 5724 5734 5744 5752 5759 5765 5771 5782 5790 5798 5805 5813 5822 5831 5838 5845 5851 5855 5859 5863 5866 5869 5872 5876 5878 5880 5883 5886 5887 5891 5895
5690 5697 5709 5722 5731 5737 5745 5753 5761 5768 5779 5786 5794 5803 5811 5820 5827 5833 5838 5844 5850 5855 5858 5861 5864 5866 5869 5873 5877 5879 5881 5884 5885
5677 5688 5698 5707 5717 5727 5737 5742 5752 5760 5768 5776 5784 5792 5800 5809 5817 5822 5828 5834 5838 5844 5849 5852 5856 5857 5859 5863 5867 5870 5873 5875 5877